CHINASAT 16 (SJ-13)

Last updated on Wed Sep 17 2025 00:02:49 GMT+0000 (Coordinated Universal Time)

1 42662U 17018A 25259.03463797 -.00000370 00000+0 00000+0 0 9998 2 42662 0.0341 107.1510 0006951 128.8049 242.2790 1.00273254 30999
UTC large
Height (km)
Speed (km/s)
/
Latitude / Longitude
Inclination (degrees)
Orbital Period (minutes)
Azimuth
Elevation
Range (km)
Doppler Factor

Next 0 passes for location: London (51.5072 / 0.1276)

Sorry there are no passes over London.